Glendive, MT

8:41 AM MST on December 09, 2019 (GMT -0700)
Dawson Community

Weather History for KGDV - October, 2019

Change the Weather History Date:

Friday, October 25, 2019

  Actual Average Record
Temperature  
Mean Temperature 48 °F 44 °F  
Max Temperature 66 °F 56 °F 79 °F (2017)
Min Temperature 30 °F 32 °F 15 °F (2012)
Degree Days  
Heating Degree Days 17 21  
Month to date heating degree days 574 400  
Year to date heating degree days 6441 4799  
Since 1 July heating degree days 875 507  
Cooling Degree Days 0 0  
Month to date cooling degree days 0 0  
Year to date cooling degree days 465 382  
Since 1 July cooling degree days 465 382  
Moisture  
Dew Point 33 °F    
Average Humidity 58    
Maximum Humidity 92    
Minimum Humidity 34    
Precipitation  
Precipitation 0.00 in 0.03 in 0.02 in (2010)
Month to date precipitation 0.61 0.94  
Year to date precipitation 17.78 12.60  
Sea Level Pressure  
Sea Level Pressure 29.88 in    
Wind  
Wind Speed 10 mph (SSW)    
Max Wind Speed 22 mph    
Max Gust Speed 28 mph    
Visibility 10 miles    
Events      
T = Trace of Precipitation, MM = Missing Value Source: NWS Daily Summary

Daily Weather History Graph

Daily Weather History Graph

Search for Another Location

Airport or City:

Astronomy

Oct. 25, 2019 Rise Set
Actual Time 7:31 AM MDT 5:54 PM MDT
Civil Twilight 7:00 AM MDT 6:25 PM MDT
Nautical Twilight 6:24 AM MDT 7:01 PM MDT
Astronomical Twilight 5:49 AM MDT 7:36 PM MDT
Moon 3:58 AM MDT (10/25) 5:12 PM MDT (10/25)
Length of Visible Light 11h 25m
Length of Day
10h 22m
Waning Crescent, 8% of the Moon is Illuminated
Oct 25
Waning Crescent
Oct 27
New
Nov 4
First Quarter
Nov 12
Full
Nov 19
Last Quarter

Hourly Weather History & Observations

Time (MDT) Temp. Windchill Dew Point Humidity Pressure Visibility Wind Dir Wind Speed Gust Speed Precip Events Conditions
12:56 AM 34.0 °F 27.2 °F 28.0 °F 79% 30.12 in 10.0 mi South 8.1 mph - N/A   Clear
1:56 AM 32.0 °F 28.7 °F 28.0 °F 85% 30.12 in 10.0 mi SSE 3.5 mph - N/A   Clear
2:56 AM 33.1 °F 27.7 °F 28.0 °F 82% 30.11 in 10.0 mi South 5.8 mph - N/A   Clear
3:56 AM 30.0 °F 22.4 °F 28.0 °F 92% 30.09 in 10.0 mi South 8.1 mph - N/A   Clear
4:56 AM 32.0 °F 24.8 °F 28.9 °F 88% 30.10 in 10.0 mi South 8.1 mph - N/A   Clear
5:56 AM 32.0 °F 23.6 °F 28.9 °F 88% 30.10 in 10.0 mi South 10.4 mph - N/A   Scattered Clouds
6:56 AM 34.0 °F 26.6 °F 30.0 °F 85% 30.09 in 10.0 mi SSW 9.2 mph - N/A   Clear
7:56 AM 36.0 °F 29.6 °F 30.9 °F 82% 30.07 in 10.0 mi SSW 8.1 mph - N/A   Clear
8:56 AM 39.9 °F 32.9 °F 32.0 °F 73% 30.05 in 10.0 mi SW 11.5 mph - N/A   Clear
9:56 AM 46.9 °F - 34.0 °F 61% 30.03 in 10.0 mi SSW 11.5 mph - N/A   Clear
10:56 AM 54.0 °F - 36.0 °F 51% 29.98 in 10.0 mi SW 15.0 mph - N/A   Clear
11:56 AM 55.9 °F - 36.0 °F 47% 29.95 in 10.0 mi SSW 13.8 mph - N/A   Clear
12:56 PM 60.1 °F - 37.0 °F 42% 29.90 in 10.0 mi South 15.0 mph - N/A   Clear
1:56 PM 62.1 °F - 37.9 °F 41% 29.84 in 10.0 mi SW 18.4 mph 23.0 mph N/A   Clear
2:56 PM 64.9 °F - 37.9 °F 37% 29.78 in 10.0 mi SSW 21.9 mph 27.6 mph N/A   Clear
3:56 PM 66.0 °F - 37.0 °F 34% 29.74 in 10.0 mi SW 17.3 mph 27.6 mph N/A   Clear
4:56 PM 64.9 °F - 36.0 °F 34% 29.71 in 10.0 mi SW 11.5 mph 21.9 mph N/A   Clear
5:56 PM 60.1 °F - 35.1 °F 39% 29.68 in 10.0 mi SSW 13.8 mph - N/A   Clear
6:56 PM 60.1 °F - 35.1 °F 39% 29.66 in 10.0 mi SSW 17.3 mph - N/A   Clear
7:56 PM 57.0 °F - 35.1 °F 44% 29.65 in 10.0 mi SW 12.7 mph - N/A   Clear
8:56 PM 55.0 °F - 34.0 °F 45% 29.63 in 10.0 mi SW 13.8 mph - N/A   Clear
9:56 PM 55.0 °F - 34.0 °F 45% 29.61 in 10.0 mi SW 13.8 mph - N/A   Partly Cloudy
10:56 PM 55.0 °F - 34.0 °F 45% 29.58 in 10.0 mi SW 12.7 mph - N/A   Clear
11:56 PM 55.0 °F - 34.0 °F 45% 29.58 in 10.0 mi WSW 9.2 mph - N/A   Mostly Cloudy